N370MK MYAM-KMCO

Flight info

Callsign N370MK
Flight time 0h 57m
Altitude 38000
Route CCLUB MUNGI1
Aircraft E55P/M-SBDFGHJ2RWY/LB2

Departure

Time 2026-04-25 21:50
Airport Leonard M. Thompson International Airport (MYAM)

Arrival

Time 2026-04-25 22:47
Airport Orlando International Airport (KMCO)
Time Latitude Longitude Altitude Speed Heading
2026-04-25 21:34 26.51333 -77.08425 12 ft 0 kts 90°
2026-04-25 21:46 26.51332 -77.08422 12 ft 1 kts 108°
2026-04-25 21:46 26.51314 -77.08414 12 ft 4 kts 191°
2026-04-25 21:46 26.51282 -77.08421 12 ft 5 kts 191°
2026-04-25 21:47 26.51227 -77.08424 13 ft 8 kts 179°
2026-04-25 21:47 26.51171 -77.08422 13 ft 7 kts 178°
2026-04-25 21:47 26.51139 -77.08458 13 ft 9 kts 271°
2026-04-25 21:47 26.51137 -77.08560 12 ft 16 kts 269°
2026-04-25 21:48 26.51133 -77.08714 11 ft 23 kts 268°
2026-04-25 21:48 26.51128 -77.08911 8 ft 26 kts 268°
2026-04-25 21:48 26.51123 -77.09114 6 ft 26 kts 269°
2026-04-25 21:48 26.51117 -77.09313 8 ft 24 kts 269°
2026-04-25 21:49 26.51111 -77.09457 10 ft 10 kts 253°
2026-04-25 21:49 26.51056 -77.09476 10 ft 9 kts 179°
2026-04-25 21:49 26.50990 -77.09461 7 ft 8 kts 110°
2026-04-25 21:49 26.50989 -77.09447 7 ft 3 kts 88°
2026-04-25 21:50 26.50999 -77.09109 7 ft 81 kts 87°
2026-04-25 21:50 26.51024 -77.08243 58 ft 133 kts 86°
2026-04-25 21:50 26.51064 -77.07115 392 ft 162 kts 86°
2026-04-25 21:50 26.51116 -77.06261 750 ft 175 kts 84°
2026-04-25 21:51 26.51455 -77.04448 1963 ft 169 kts 62°
2026-04-25 21:51 26.52350 -77.03529 2354 ft 200 kts 22°
2026-04-25 21:51 26.53897 -77.03529 2471 ft 246 kts 340°
2026-04-25 21:51 26.55225 -77.04820 3075 ft 265 kts 299°
2026-04-25 21:52 26.55824 -77.06721 4181 ft 256 kts 289°
2026-04-25 21:52 26.56357 -77.08549 5017 ft 251 kts 289°
2026-04-25 21:52 26.56899 -77.10445 5622 ft 257 kts 288°
2026-04-25 21:52 26.57446 -77.12347 6241 ft 261 kts 288°
2026-04-25 21:53 26.58003 -77.14277 6933 ft 262 kts 288°
2026-04-25 21:53 26.58554 -77.16183 7642 ft 261 kts 288°
2026-04-25 21:53 26.59117 -77.18123 8292 ft 264 kts 288°
2026-04-25 21:53 26.59675 -77.20053 8917 ft 266 kts 288°
2026-04-25 21:54 26.60250 -77.22038 9557 ft 268 kts 288°
2026-04-25 21:54 26.60821 -77.24004 10192 ft 270 kts 288°
2026-04-25 21:54 26.61408 -77.26007 10847 ft 271 kts 288°
2026-04-25 21:54 26.61998 -77.27997 11445 ft 274 kts 288°
2026-04-25 21:55 26.62598 -77.30006 12040 ft 277 kts 288°
2026-04-25 21:55 26.63211 -77.32040 12639 ft 279 kts 289°
2026-04-25 21:55 26.63833 -77.34104 13235 ft 281 kts 289°
2026-04-25 21:55 26.64463 -77.36195 13805 ft 284 kts 289°
2026-04-25 21:56 26.65085 -77.38284 14393 ft 286 kts 288°
2026-04-25 21:56 26.65495 -77.39673 14793 ft 287 kts 289°
2026-04-25 21:56 26.66317 -77.42496 15593 ft 289 kts 289°
2026-04-25 21:56 26.66932 -77.44640 16158 ft 291 kts 289°
2026-04-25 21:57 26.67542 -77.46800 16711 ft 293 kts 289°
2026-04-25 21:57 26.68153 -77.48986 17283 ft 294 kts 289°
2026-04-25 21:57 26.68758 -77.51160 17804 ft 297 kts 289°
2026-04-25 21:57 26.69369 -77.53371 18347 ft 299 kts 289°
2026-04-25 21:58 26.69984 -77.55602 18850 ft 302 kts 289°
2026-04-25 21:58 26.70600 -77.57848 19330 ft 305 kts 289°
2026-04-25 21:58 26.71227 -77.60127 19824 ft 308 kts 289°
2026-04-25 21:58 26.71867 -77.62432 20336 ft 310 kts 289°
2026-04-25 21:59 26.72504 -77.64728 20809 ft 313 kts 289°
2026-04-25 21:59 26.73148 -77.67055 21254 ft 317 kts 288°
2026-04-25 21:59 26.73811 -77.69434 21715 ft 320 kts 288°
2026-04-25 22:00 26.75143 -77.74219 22604 ft 325 kts 288°
2026-04-25 22:00 26.75810 -77.76615 23055 ft 328 kts 289°
2026-04-25 22:00 26.76491 -77.79059 23449 ft 332 kts 289°
2026-04-25 22:00 26.77199 -77.81587 23437 ft 348 kts 289°
2026-04-25 22:01 26.77937 -77.84206 23456 ft 361 kts 288°
2026-04-25 22:01 26.78715 -77.86955 23504 ft 372 kts 288°
2026-04-25 22:01 26.79323 -77.89100 23751 ft 374 kts 289°
2026-04-25 22:01 26.79846 -77.90949 24078 ft 373 kts 289°
2026-04-25 22:02 26.80871 -77.94621 24844 ft 367 kts 289°
2026-04-25 22:02 26.81615 -77.97315 25338 ft 365 kts 289°
2026-04-25 22:02 26.82363 -78.00043 25770 ft 365 kts 289°
2026-04-25 22:02 26.83097 -78.02744 26225 ft 364 kts 289°
2026-04-25 22:03 26.83824 -78.05443 26705 ft 362 kts 289°
2026-04-25 22:03 26.84545 -78.08134 27189 ft 360 kts 289°
2026-04-25 22:03 26.85265 -78.10822 27615 ft 359 kts 289°
2026-04-25 22:03 26.85965 -78.13469 28056 ft 358 kts 289°
2026-04-25 22:04 26.86663 -78.16138 28495 ft 357 kts 289°
2026-04-25 22:04 26.87349 -78.18791 28948 ft 356 kts 289°
2026-04-25 22:04 26.88033 -78.21460 29410 ft 354 kts 289°
2026-04-25 22:04 26.88699 -78.24081 29832 ft 353 kts 289°
2026-04-25 22:05 26.89372 -78.26736 30220 ft 353 kts 289°
2026-04-25 22:05 26.90031 -78.29365 30639 ft 352 kts 289°
2026-04-25 22:05 26.90680 -78.31976 31060 ft 351 kts 289°
2026-04-25 22:05 26.91339 -78.34629 31453 ft 351 kts 289°
2026-04-25 22:06 26.91996 -78.37266 31806 ft 351 kts 289°
2026-04-25 22:06 26.92639 -78.39873 32184 ft 351 kts 289°
2026-04-25 22:06 26.93295 -78.42499 32607 ft 349 kts 289°
2026-04-25 22:06 26.93933 -78.45094 32988 ft 348 kts 290°
2026-04-25 22:07 26.94584 -78.47714 33302 ft 349 kts 289°
2026-04-25 22:07 26.95022 -78.49454 33549 ft 348 kts 290°
2026-04-25 22:07 26.95886 -78.52924 34156 ft 346 kts 289°
2026-04-25 22:07 26.96542 -78.55481 34585 ft 344 kts 289°
2026-04-25 22:08 26.97211 -78.58031 35038 ft 342 kts 289°
2026-04-25 22:08 26.97894 -78.60583 35461 ft 341 kts 289°
2026-04-25 22:08 26.98587 -78.63123 35874 ft 340 kts 290°
2026-04-25 22:08 26.99281 -78.65639 36256 ft 339 kts 289°
2026-04-25 22:09 26.99979 -78.68139 36626 ft 339 kts 289°
2026-04-25 22:09 27.00708 -78.70698 37033 ft 338 kts 289°
2026-04-25 22:09 27.01429 -78.73176 37396 ft 339 kts 289°
2026-04-25 22:09 27.02172 -78.75687 37774 ft 338 kts 289°
2026-04-25 22:10 27.02926 -78.78188 37985 ft 342 kts 289°
2026-04-25 22:10 27.03699 -78.80738 37992 ft 347 kts 289°
2026-04-25 22:10 27.05274 -78.85921 37991 ft 355 kts 289°
2026-04-25 22:11 27.06888 -78.91211 37994 ft 363 kts 289°
2026-04-25 22:11 27.08550 -78.96596 37993 ft 370 kts 289°
2026-04-25 22:12 27.10255 -79.02096 37983 ft 377 kts 289°
2026-04-25 22:12 27.11700 -79.06765 37991 ft 382 kts 290°
2026-04-25 22:13 27.13740 -79.13366 37989 ft 389 kts 290°
2026-04-25 22:13 27.15522 -79.19135 37986 ft 394 kts 290°
2026-04-25 22:14 27.16562 -79.25143 37899 ft 403 kts 263°
2026-04-25 22:14 27.16292 -79.26586 37909 ft 405 kts 260°
2026-04-25 22:15 27.16168 -79.29702 37848 ft 402 kts 281°
2026-04-25 22:15 27.16888 -79.32719 37866 ft 402 kts 286°
2026-04-25 22:16 27.19110 -79.41863 37929 ft 406 kts 286°
2026-04-25 22:16 27.20600 -79.47957 37985 ft 408 kts 286°
2026-04-25 22:17 27.22427 -79.53965 38014 ft 408 kts 299°
2026-04-25 22:17 27.25024 -79.59648 38091 ft 409 kts 297°
2026-04-25 22:18 27.27607 -79.65375 38169 ft 410 kts 297°
2026-04-25 22:18 27.30186 -79.71098 37899 ft 419 kts 297°
2026-04-25 22:18 27.31508 -79.74036 37386 ft 427 kts 297°
2026-04-25 22:19 27.32816 -79.76947 36887 ft 413 kts 297°
2026-04-25 22:19 27.34098 -79.79796 36419 ft 399 kts 297°
2026-04-25 22:19 27.35325 -79.82534 35973 ft 386 kts 298°
2026-04-25 22:19 27.36501 -79.85148 35550 ft 373 kts 298°
2026-04-25 22:20 27.37663 -79.87738 35136 ft 361 kts 298°
2026-04-25 22:20 27.38760 -79.90186 34752 ft 350 kts 298°
2026-04-25 22:20 27.39848 -79.92612 34373 ft 340 kts 298°
2026-04-25 22:20 27.40895 -79.94945 34008 ft 330 kts 298°
2026-04-25 22:21 27.41902 -79.97199 33658 ft 321 kts 299°
2026-04-25 22:21 27.42893 -79.99411 33329 ft 312 kts 299°
2026-04-25 22:21 27.43852 -80.01558 32998 ft 303 kts 299°
2026-04-25 22:21 27.44791 -80.03668 32674 ft 295 kts 300°
2026-04-25 22:22 27.45706 -80.05707 32353 ft 294 kts 300°
2026-04-25 22:22 27.46638 -80.07790 32018 ft 299 kts 300°
2026-04-25 22:22 27.47579 -80.09891 31692 ft 304 kts 300°
2026-04-25 22:22 27.48524 -80.12009 31363 ft 308 kts 300°
2026-04-25 22:23 27.49497 -80.14189 31021 ft 313 kts 300°
2026-04-25 22:23 27.50479 -80.16397 30676 ft 317 kts 300°
2026-04-25 22:23 27.51480 -80.18638 30323 ft 321 kts 300°
2026-04-25 22:23 27.52484 -80.20895 29964 ft 325 kts 301°
2026-04-25 22:24 27.53496 -80.23169 29606 ft 328 kts 300°
2026-04-25 22:24 27.54527 -80.25485 29245 ft 331 kts 300°
2026-04-25 22:24 27.55573 -80.27840 28878 ft 334 kts 300°
2026-04-25 22:24 27.56615 -80.30180 28512 ft 336 kts 300°
2026-04-25 22:25 27.57668 -80.32552 28139 ft 339 kts 300°
2026-04-25 22:25 27.58721 -80.34921 27773 ft 350 kts 300°
2026-04-25 22:25 27.59847 -80.37459 27384 ft 366 kts 299°
2026-04-25 22:25 27.61006 -80.40071 26976 ft 380 kts 298°
2026-04-25 22:26 27.62195 -80.42758 26555 ft 392 kts 298°
2026-04-25 22:26 27.63424 -80.45539 26115 ft 402 kts 298°
2026-04-25 22:26 27.64676 -80.48372 25664 ft 411 kts 298°
2026-04-25 22:26 27.65973 -80.51305 25198 ft 419 kts 297°
2026-04-25 22:27 27.67268 -80.54240 24734 ft 424 kts 297°
2026-04-25 22:27 27.68590 -80.57234 24256 ft 429 kts 297°
2026-04-25 22:27 27.69918 -80.60245 23774 ft 432 kts 297°
2026-04-25 22:27 27.71253 -80.63276 23292 ft 431 kts 297°
2026-04-25 22:28 27.72566 -80.66260 22815 ft 419 kts 296°
2026-04-25 22:28 27.73839 -80.69157 22356 ft 407 kts 296°
2026-04-25 22:28 27.75082 -80.71985 21912 ft 396 kts 296°
2026-04-25 22:28 27.76299 -80.74753 21480 ft 387 kts 296°
2026-04-25 22:29 27.77500 -80.77412 21051 ft 378 kts 300°
2026-04-25 22:29 27.78965 -80.79806 20644 ft 370 kts 304°
2026-04-25 22:29 27.80387 -80.82179 20247 ft 362 kts 304°
2026-04-25 22:30 27.83178 -80.86791 19468 ft 350 kts 304°
2026-04-25 22:30 27.84548 -80.89062 19083 ft 344 kts 304°
2026-04-25 22:30 27.85877 -80.91266 18706 ft 339 kts 304°
2026-04-25 22:30 27.86750 -80.92714 18463 ft 336 kts 304°
2026-04-25 22:31 27.88491 -80.95604 17972 ft 329 kts 304°
2026-04-25 22:31 27.89772 -80.97729 17616 ft 325 kts 304°
2026-04-25 22:31 27.91028 -80.99815 17261 ft 321 kts 304°
2026-04-25 22:31 27.92281 -81.01901 16910 ft 318 kts 304°
2026-04-25 22:32 27.93676 -81.03804 16548 ft 315 kts 322°
2026-04-25 22:32 27.95628 -81.04830 16240 ft 313 kts 340°
2026-04-25 22:32 27.97683 -81.05680 15889 ft 310 kts 338°
2026-04-25 22:32 27.99709 -81.06529 15539 ft 308 kts 338°
2026-04-25 22:33 28.01692 -81.07368 15197 ft 305 kts 338°
2026-04-25 22:33 28.03682 -81.08210 14852 ft 303 kts 338°
2026-04-25 22:33 28.05651 -81.09044 14517 ft 300 kts 337°
2026-04-25 22:33 28.07592 -81.09864 14176 ft 298 kts 337°
2026-04-25 22:34 28.09545 -81.10718 13815 ft 297 kts 336°
2026-04-25 22:34 28.11456 -81.11557 13482 ft 295 kts 336°
2026-04-25 22:34 28.13390 -81.12408 13139 ft 293 kts 336°
2026-04-25 22:34 28.15282 -81.13243 12802 ft 291 kts 336°
2026-04-25 22:35 28.17176 -81.14075 12473 ft 289 kts 336°
2026-04-25 22:35 28.19048 -81.14901 12155 ft 287 kts 336°
2026-04-25 22:35 28.20891 -81.15715 11844 ft 286 kts 336°
2026-04-25 22:35 28.22753 -81.16536 11527 ft 284 kts 336°
2026-04-25 22:36 28.24581 -81.17343 11222 ft 282 kts 336°
2026-04-25 22:36 28.26418 -81.18153 10956 ft 279 kts 336°
2026-04-25 22:36 28.28309 -81.18568 10922 ft 273 kts 358°
2026-04-25 22:36 28.30167 -81.18580 10810 ft 266 kts 355°
2026-04-25 22:37 28.32021 -81.18617 10568 ft 263 kts 356°
2026-04-25 22:37 28.33828 -81.18651 10152 ft 260 kts 356°
2026-04-25 22:37 28.35625 -81.18683 9736 ft 257 kts 356°
2026-04-25 22:37 28.37400 -81.18720 9310 ft 254 kts 356°
2026-04-25 22:38 28.39185 -81.18751 8885 ft 252 kts 356°
2026-04-25 22:38 28.40916 -81.18765 8473 ft 250 kts 357°
2026-04-25 22:38 28.42660 -81.18780 8065 ft 249 kts 357°
2026-04-25 22:38 28.44383 -81.18793 7647 ft 248 kts 357°
2026-04-25 22:39 28.46119 -81.18806 7221 ft 247 kts 357°
2026-04-25 22:39 28.47812 -81.18822 6816 ft 246 kts 357°
2026-04-25 22:39 28.49534 -81.18836 6393 ft 245 kts 358°
2026-04-25 22:39 28.51242 -81.18852 6006 ft 249 kts 358°
2026-04-25 22:40 28.52981 -81.18862 5944 ft 241 kts 357°
2026-04-25 22:40 28.54620 -81.18874 5935 ft 231 kts 356°
2026-04-25 22:40 28.56196 -81.18903 5921 ft 223 kts 356°
2026-04-25 22:40 28.57802 -81.18939 5507 ft 235 kts 356°
2026-04-25 22:41 28.59450 -81.18977 5110 ft 241 kts 357°
2026-04-25 22:41 28.61160 -81.19016 4703 ft 246 kts 357°
2026-04-25 22:41 28.62875 -81.19067 4301 ft 248 kts 353°
2026-04-25 22:41 28.64426 -81.19792 3891 ft 245 kts 316°
2026-04-25 22:42 28.65224 -81.21444 3592 ft 237 kts 277°
2026-04-25 22:42 28.64955 -81.23230 3375 ft 228 kts 245°
2026-04-25 22:42 28.64069 -81.24697 3135 ft 226 kts 227°
2026-04-25 22:42 28.62941 -81.25944 2898 ft 227 kts 222°
2026-04-25 22:43 28.61745 -81.27113 2735 ft 224 kts 219°
2026-04-25 22:43 28.60546 -81.28240 2605 ft 221 kts 219°
2026-04-25 22:43 28.59329 -81.29369 2499 ft 230 kts 218°
2026-04-25 22:43 28.58063 -81.30537 2379 ft 232 kts 218°
2026-04-25 22:44 28.56820 -81.31686 2262 ft 232 kts 218°
2026-04-25 22:44 28.55493 -81.32709 2094 ft 228 kts 198°
2026-04-25 22:44 28.53940 -81.32800 1840 ft 222 kts 174°
2026-04-25 22:44 28.52477 -81.32784 1548 ft 195 kts 181°
2026-04-25 22:45 28.51210 -81.32758 1301 ft 169 kts 179°
2026-04-25 22:45 28.50122 -81.32754 1152 ft 144 kts 179°
2026-04-25 22:45 28.49142 -81.32741 945 ft 135 kts 180°
2026-04-25 22:45 28.48250 -81.32732 760 ft 121 kts 180°
2026-04-25 22:46 28.47429 -81.32722 608 ft 116 kts 181°
2026-04-25 22:46 28.46607 -81.32714 469 ft 118 kts 181°
2026-04-25 22:46 28.45776 -81.32706 312 ft 118 kts 181°
2026-04-25 22:46 28.44944 -81.32689 153 ft 117 kts 182°
2026-04-25 22:47 28.44179 -81.32687 91 ft 100 kts 181°
2026-04-25 22:47 28.43542 -81.32691 90 ft 84 kts 178°
2026-04-25 22:47 28.43002 -81.32681 91 ft 58 kts 179°
2026-04-25 22:47 28.42767 -81.32680 91 ft 30 kts 176°
2026-04-25 22:48 28.42647 -81.32778 92 ft 21 kts 268°
2026-04-25 22:48 28.42647 -81.32918 92 ft 7 kts 302°
2026-04-25 22:48 28.42696 -81.32923 92 ft 7 kts
2026-04-25 22:48 28.42752 -81.32920 91 ft 9 kts
2026-04-25 22:49 28.42859 -81.32922 91 ft 19 kts 358°
2026-04-25 22:49 28.42995 -81.32931 91 ft 19 kts 355°
2026-04-25 22:49 28.43141 -81.32922 90 ft 21 kts
2026-04-25 22:49 28.43292 -81.32925 90 ft 21 kts
2026-04-25 22:50 28.43347 -81.32969 90 ft 10 kts 268°
2026-04-25 22:50 28.43345 -81.33052 90 ft 10 kts 271°
2026-04-25 22:50 28.43334 -81.33134 90 ft 10 kts 230°
2026-04-25 22:50 28.43272 -81.33153 90 ft 6 kts 172°
2026-04-25 22:51 28.43262 -81.33152 90 ft 0 kts 181°
2026-04-25 22:51 28.43263 -81.33152 90 ft 0 kts 181°
2026-04-25 22:58 28.43262 -81.33152 90 ft 0 kts 181°
2026-04-25 22:58 28.43245 -81.33152 90 ft 1 kts 179°
2026-04-25 22:59 28.43238 -81.33145 90 ft 1 kts 102°
2026-04-25 22:59 28.43241 -81.33126 90 ft 2 kts 56°
2026-04-25 22:59 28.43257 -81.33117 90 ft 2 kts 357°
2026-04-25 22:59 28.43299 -81.33118 90 ft 7 kts 360°
2026-04-25 23:00 28.43333 -81.33118 90 ft 2 kts 360°
2026-04-25 23:00 28.43343 -81.33122 90 ft 1 kts 300°
2026-04-25 23:00 28.43343 -81.33145 90 ft 5 kts 270°
2026-04-25 23:00 28.43343 -81.33205 90 ft 7 kts 270°
2026-04-25 23:01 28.43343 -81.33265 90 ft 6 kts 270°
2026-04-25 23:01 28.43343 -81.33296 90 ft 2 kts 263°
2026-04-25 23:01 28.43331 -81.33308 89 ft 2 kts 195°
2026-04-25 23:01 28.43314 -81.33310 89 ft 1 kts 202°
2026-04-25 23:02 28.43304 -81.33325 89 ft 2 kts 250°
2026-04-25 23:02 28.43304 -81.33336 89 ft 0 kts 275°